This is the latest recevied weather packets stored in our database for station/object DB0LS-15. If no packets are shown the sender has not sent any weather packets the latest 10 day(s).
| Time | Temp. | Humidity | Pressure | Rain* | Wind** | Luminosity | Snow |
|---|---|---|---|---|---|---|---|
| 1777617632 | 11.67° C | 68% | 1012.6 hPa | 0 mm | - | - | - |
| 1777617028 | 10.56° C | 69% | 1012.7 hPa | 0 mm | - | - | - |
| 1777616424 | 10° C | 70% | 1012.5 hPa | 0 mm | - | - | - |
| 1777615820 | 9.44° C | 71% | 1012.6 hPa | 0 mm | - | - | - |
| 1777615216 | 9.44° C | 71% | 1012.6 hPa | 0 mm | - | - | - |
| 1777614673 | 9.44° C | 70% | 1012.6 hPa | 0 mm | - | - | - |
| 1777614069 | 8.89° C | 71% | 1012.6 hPa | 0 mm | - | - | - |
| 1777613465 | 8.33° C | 71% | 1012.7 hPa | 0 mm | - | - | - |
| 1777612861 | 8.33° C | 72% | 1012.6 hPa | 0 mm | - | - | - |
| 1777612258 | 7.78° C | 73% | 1012.6 hPa | 0 mm | - | - | - |
| 1777611654 | 7.78° C | 74% | 1012.6 hPa | 0 mm | - | - | - |
| 1777611050 | 7.22° C | 74% | 1012.6 hPa | 0 mm | - | - | - |
| 1777610446 | 7.78° C | 73% | 1012.5 hPa | 0 mm | - | - | - |
| 1777609842 | 7.22° C | 75% | 1012.5 hPa | 0 mm | - | - | - |
| 1777609239 | 7.22° C | 75% | 1012.4 hPa | 0 mm | - | - | - |
| 1777608635 | 7.22° C | 75% | 1012.3 hPa | 0 mm | - | - | - |
| 1777608031 | 7.22° C | 75% | 1012.3 hPa | 0 mm | - | - | - |
| 1777607427 | 7.22° C | 74% | 1012.4 hPa | 0 mm | - | - | - |
| 1777606823 | 7.22° C | 74% | 1012.3 hPa | 0 mm | - | - | - |
| 1777606220 | 7.22° C | 74% | 1012.2 hPa | 0 mm | - | - | - |
| 1777605616 | 7.22° C | 73% | 1012.2 hPa | 0 mm | - | - | - |
| 1777605072 | 7.78° C | 72% | 1012.2 hPa | 0 mm | - | - | - |
| 1777604469 | 7.78° C | 73% | 1012.3 hPa | 0 mm | - | - | - |
| 1777603863 | 7.78° C | 73% | 1012.3 hPa | 0 mm | - | - | - |
| 1777603259 | 7.78° C | 72% | 1012.2 hPa | 0 mm | - | - | - |
* Rain latest hour (hover to see other rain measurements)
** Current wind speed in m/s (hover to see current wind gust speed)